Simultaneous Nadir Overpasses (SNOs) Predictions

Prediction of SNOs between GOES-14 and NPP Satellite Orbit:

Table of predicted SNOs for the next 14.0 days since TLE Epoch: 9/17/2022
Index Date Time (GOES-14) GOES-14 Lat,Lon NPP Lat,Lon Distance(km) Time Diff (sec)
1 09/17/2022 08:18:35 0.37,-104.39 0.17,-103.57 93.74 80
2 09/19/2022 20:24:28 -0.35,-104.48 -0.33,-104.35 14.18 80
3 09/22/2022 08:27:32 0.33,-104.38 0.49,-105.09 80.46 80
4 09/23/2022 08:06:07 0.34,-104.36 -0.52,-100.56 433.97 80
5 09/24/2022 20:28:05 -0.32,-104.43 -0.63,-105.87 164.19 80
6 09/25/2022 20:12:00 -0.33,-104.43 0.38,-101.34 353.15 80
7 09/27/2022 08:33:48 0.30,-104.38 0.79,-106.61 253.57 80
8 09/28/2022 08:12:24 0.32,-104.36 -0.22,-102.08 260.98 80
9 09/29/2022 20:34:20 -0.29,-104.38 -0.98,-107.38 342.32 80
10 09/30/2022 20:18:16 -0.30,-104.38 0.04,-102.85 174.64 80
